Date String (YYYY-MM-DD hh:mm:ss) UTC,Instrument flags,Ambient pressure (hPa),Sample flow (lpm),Bypass flow (lpm),Sample temperature (°C),Ambient temperature (°C),ASC tube jacket temperature (°C),LED temperature (°C),Box temperature (°C),Sample RH (%),Span deviation,Mass concentration (μg/m³),Mass concentration (μg/m³),Mass concentration (μg/m³)
DateTimeUTC,F1_M11,P_M11,Q1_M11,Q2_M11,T1_M11,T2_M11,T3_M11,T4_M11,T5_M11,U1_M11,ZSPAN_M11,X0_M11,X2_M11,X1_M11
2023-01-10 23:00:00,,0814.7,5.00,0.00,22.6,21.4,00.0,31.3,24.3,14.3,0000.0,0001.69,0000.40,0000.23
2023-01-10 23:01:00,,0814.6,4.99,0.00,22.6,21.3,00.0,31.3,24.3,14.2,0000.0,0001.25,0000.42,0000.22
2023-01-10 23:02:00,,0814.8,5.00,0.00,22.5,21.1,00.0,31.3,24.2,14.2,0000.0,0001.34,0000.44,0000.22
2023-01-10 23:03:00,,0814.6,4.99,0.00,22.5,21.0,00.0,31.3,24.2,14.4,0000.0,0009.10,0000.52,0000.23
2023-01-10 23:04:00,,0814.9,5.00,0.00,22.5,20.9,00.0,31.3,24.1,14.5,0000.0,0011.56,0000.55,0000.23
2023-01-10 23:05:00,,0814.8,4.99,0.00,22.4,20.8,00.0,31.3,24.1,14.8,0000.0,0011.56,0000.54,0000.22
2023-01-10 23:06:00,,0814.8,5.00,0.00,22.4,20.7,00.0,31.3,24.1,14.9,0000.0,0011.49,0000.57,0000.22
2023-01-10 23:07:00,,0814.8,5.00,0.00,22.4,20.7,00.0,31.3,24.0,14.9,0000.0,0011.41,0000.57,0000.22
2023-01-10 23:08:00,,0814.6,5.00,0.00,22.4,20.7,00.0,31.3,24.0,14.9,0000.0,0011.42,0000.56,0000.21
2023-01-10 23:09:00,,0814.8,5.00,0.00,22.3,20.6,00.0,31.2,23.9,14.7,0000.0,0011.47,0000.57,0000.21
2023-01-10 23:10:00,,0814.5,5.00,0.00,22.3,20.5,00.0,31.2,23.9,14.9,0000.0,0011.56,0000.57,0000.21
2023-01-10 23:11:00,,0814.7,5.01,0.00,22.3,20.5,00.0,31.2,23.8,15.0,0000.0,0011.64,0000.55,0000.21
2023-01-10 23:12:00,,0814.7,5.01,0.00,22.2,20.4,00.0,31.2,23.8,15.0,0000.0,0011.62,0000.53,0000.21
2023-01-10 23:13:00,,0814.9,5.01,0.00,22.2,20.4,00.0,31.2,23.7,15.5,0000.0,0012.16,0000.49,0000.21
2023-01-10 23:14:00,,0814.9,5.01,0.00,22.2,20.5,00.0,31.1,23.8,15.5,0000.0,0004.63,0000.40,0000.20
2023-01-10 23:15:00,,0814.7,5.00,0.00,22.2,21.2,00.0,31.1,24.0,15.2,0000.0,0003.78,0000.40,0000.20
2023-01-10 23:16:00,,0814.9,5.00,0.00,22.3,22.3,00.0,31.1,24.3,14.7,0000.0,0004.15,0000.42,0000.20
2023-01-10 23:17:00,,0814.8,5.00,0.00,22.5,23.0,00.0,31.1,24.6,14.6,0000.0,0004.20,0000.40,0000.20
2023-01-10 23:18:00,,0814.9,5.00,0.00,22.6,22.7,00.0,31.2,24.6,14.5,0000.0,0004.27,0000.41,0000.20
2023-01-10 23:19:00,,0814.8,5.00,0.00,22.6,22.3,00.0,31.3,24.6,14.5,0000.0,0004.22,0000.40,0000.20
2023-01-10 23:20:00,,0814.8,5.02,0.00,22.6,22.0,00.0,31.3,24.5,14.2,0000.0,0004.23,0000.39,0000.20
2023-01-10 23:21:00,,0814.8,4.99,0.00,22.6,21.7,00.0,31.3,24.4,14.2,0000.0,0004.08,0000.38,0000.20
2023-01-10 23:22:00,,0814.9,5.02,0.00,22.6,21.4,00.0,31.3,24.3,14.4,0000.0,0003.90,0000.37,0000.19
2023-01-10 23:23:00,,0814.7,4.98,0.00,22.6,21.3,00.0,31.3,24.3,14.6,0000.0,0003.90,0000.38,0000.19
2023-01-10 23:24:00,,0814.9,4.99,0.00,22.5,21.1,00.0,31.3,24.2,14.2,0000.0,0002.89,0000.37,0000.19
2023-01-10 23:25:00,,0814.7,5.02,0.00,22.5,21.0,00.0,31.3,24.1,14.4,0000.0,0002.20,0000.35,0000.19
2023-01-10 23:26:00,,0814.9,5.00,0.00,22.5,20.9,00.0,31.3,24.1,14.2,0000.0,0003.14,0000.32,0000.19
2023-01-10 23:27:00,,0815.0,4.99,0.00,22.4,20.8,00.0,31.3,24.0,14.4,0000.0,0002.70,0000.29,0000.19
2023-01-10 23:28:00,,0814.9,4.99,0.00,22.4,20.7,00.0,31.3,24.0,14.4,0000.0,0002.75,0000.28,0000.20
2023-01-10 23:29:00,,0814.9,5.01,0.00,22.4,20.7,00.0,31.3,24.0,14.2,0000.0,0002.66,0000.26,0000.19
2023-01-10 23:30:00,,0814.9,4.99,0.00,22.3,20.7,00.0,31.3,23.9,14.4,0000.0,0002.67,0000.27,0000.19
2023-01-10 23:31:00,,0814.9,4.99,0.00,22.3,20.6,00.0,31.3,23.9,14.2,0000.0,0002.61,0000.28,0000.20
2023-01-10 23:32:00,,0815.0,4.99,0.00,22.3,20.5,00.0,31.2,23.9,14.2,0000.0,0002.46,0000.27,0000.20
2023-01-10 23:33:00,,0815.1,4.99,0.00,22.2,20.5,00.0,31.2,23.8,14.2,0000.0,0002.42,0000.26,0000.20
2023-01-10 23:34:00,,0815.1,5.00,0.00,22.2,20.5,00.0,31.2,23.8,14.4,0000.0,0002.40,0000.25,0000.20
2023-01-10 23:35:00,,0815.1,5.00,0.00,22.2,21.0,00.0,31.1,24.0,14.3,0000.0,0002.48,0000.29,0000.21
2023-01-10 23:36:00,,0815.2,5.00,0.00,22.3,22.1,00.0,31.1,24.3,14.1,0000.0,0002.38,0000.29,0000.21
2023-01-10 23:37:00,,0815.0,5.01,0.00,22.5,23.0,00.0,31.2,24.6,14.0,0000.0,0000.86,0000.32,0000.21
2023-01-10 23:38:00,,0815.0,5.00,0.00,22.6,22.8,00.0,31.3,24.7,13.8,0000.0,0001.00,0000.36,0000.22
2023-01-10 23:39:00,,0814.8,4.99,0.00,22.6,22.4,00.0,31.3,24.6,13.9,0000.0,0000.86,0000.37,0000.22
2023-01-10 23:40:00,,0815.1,5.00,0.00,22.6,22.1,00.0,31.3,24.5,13.6,0000.0,0000.89,0000.40,0000.22
2023-01-10 23:41:00,,0815.0,5.01,0.00,22.6,21.8,00.0,31.4,24.4,14.1,0000.0,0000.93,0000.43,0000.23
2023-01-10 23:42:00,,0815.0,5.00,0.00,22.6,21.5,00.0,31.4,24.3,14.1,0000.0,0000.93,0000.43,0000.23
2023-01-10 23:43:00,,0815.0,5.00,0.00,22.6,21.3,00.0,31.4,24.3,14.0,0000.0,0001.03,0000.47,0000.24
2023-01-10 23:44:00,,0815.2,4.99,0.00,22.6,21.2,00.0,31.4,24.2,14.2,0000.0,0001.10,0000.49,0000.24
2023-01-10 23:45:00,,0815.2,4.98,0.00,22.6,21.1,00.0,31.4,24.2,14.1,0000.0,0001.13,0000.51,0000.24
2023-01-10 23:46:00,,0815.0,5.00,0.00,22.5,21.0,00.0,31.4,24.1,14.1,0000.0,0001.07,0000.48,0000.24
2023-01-10 23:47:00,,0815.3,5.01,0.00,22.5,20.9,00.0,31.3,24.1,14.0,0000.0,0001.59,0000.49,0000.24
2023-01-10 23:48:00,,0815.3,5.00,0.00,22.4,20.8,00.0,31.3,24.0,14.4,0000.0,0001.85,0000.48,0000.23
2023-01-10 23:49:00,,0815.3,5.00,0.00,22.4,20.7,00.0,31.3,24.0,14.1,0000.0,0001.71,0000.43,0000.23
2023-01-10 23:50:00,,0815.3,5.00,0.00,22.4,20.7,00.0,31.3,23.9,14.0,0000.0,0001.62,0000.41,0000.23
2023-01-10 23:51:00,,0815.4,4.99,0.00,22.3,20.6,00.0,31.3,23.9,14.3,0000.0,0001.58,0000.38,0000.23
2023-01-10 23:52:00,,0815.3,5.01,0.00,22.3,20.6,00.0,31.3,23.9,14.3,0000.0,0001.70,0000.38,0000.22
2023-01-10 23:53:00,,0815.5,4.99,0.00,22.3,20.6,00.0,31.3,23.9,14.3,0000.0,0001.68,0000.37,0000.22
2023-01-10 23:54:00,,0815.4,5.01,0.00,22.2,20.5,00.0,31.2,23.8,14.3,0000.0,0001.61,0000.34,0000.23
2023-01-10 23:55:00,,0815.3,5.00,0.00,22.2,20.5,00.0,31.2,23.8,14.4,0000.0,0001.53,0000.32,0000.23
2023-01-10 23:56:00,,0815.3,5.00,0.00,22.2,20.5,00.0,31.2,23.8,14.2,0000.0,0001.54,0000.33,0000.23
2023-01-10 23:57:00,,0815.3,5.00,0.00,22.2,20.4,00.0,31.2,23.7,14.2,0000.0,0001.52,0000.33,0000.24
2023-01-10 23:58:00,,0815.4,5.02,0.00,22.2,21.1,00.0,31.1,23.9,14.1,0000.0,0001.21,0000.32,0000.24
2023-01-10 23:59:00,,0815.4,4.99,0.00,22.3,22.2,00.0,31.1,24.3,14.1,0000.0,0000.69,0000.32,0000.24
